Zurück zum Katalog

METEOR 2-8 DEB

AktivPO
NORAD 36342·DEBRIS·🇷🇺 Russia

Gestartet Mar 25, 1982 von Plesetsk Cosmodrome

Loading…

Nächste Überflüge (nächste 24 Stunden)

TLE

AktuellSource: Space-Track

Epoche: Sep 14, 2026, 02:41 UTC

1 36342U 82025AC  26257.11219060  .00001788  00000-0  84812-3 0  9997
2 36342  82.5308 186.2273 0028116 343.0884  16.9355 14.18892409679099

Verfolge METEOR 2-8 DEB in Echtzeit mit AllMySat

Download on the App Store